User: anonymous   Login
Location: Unspecified
(43.4680°N, 87.1740°E)
Time: 08:34:46
(UTC+00:00)
Language:

IRIDIUM 114 - Orbit

View from above orbital plane
View from above orbital plane
View from above satellite
View from above satellite

Ground track
Ground track

The orbit data is extracted from the following two-line orbital elements,

1 41923U 17003G   21165.16451275  .00000078  00000-0  20946-4 0  9996
2 41923  86.3965 132.7795 0002581  86.4324 273.7167 14.34215091231116
Epoch (UTC): 14 June 2021 03:56:53
Eccentricity: 0.0002581
inclination: 86.3965°
perigee height: 776 km
apogee height: 779 km
right ascension of ascending node: 132.7795°
argument of perigee: 86.4324°
revolutions per day: 14.34215091
mean anomaly at epoch: 273.7167°
orbit number at epoch: 23111

The dashed part of the orbit path shows where the satellite is in the earth's shadow,  

DLR